星链-30463 (STARLINK-30463 )

导读

STARLINK-30463是美国太空探索技术公司(SpaceX)研制的星链(Starlink)低轨互联网卫星,于2023年9月20日发射入轨。该卫星属于Starlink v1.5平台,运行在近地轨道,近地点约558千米、远地点约560千米,轨道倾角43度,设计寿命5-7年,主要为全球提供高速宽带互联网服务,目前仍在轨正常工作。

Basic Information
目录编号:
57909
目录名称:
STARLINK-30463
国际标识:
2023-146U
轨道中心:
EARTH
卫星名称:
星链-30463
卫星全名:
星链-30463 (STARLINK-30463 )
卫星状态:
在轨 (已飞行1080 天)
发射日期:
2023-09-20 UTC
国别 :
美国 (US)
星等 :
--
Orbit Information
数据来源 国际轨道数据 AOE轨道数据
星历时间 2026-09-04T02:16:20+0800
15小时前
查看轨道信息
2026-08-29T00:00:00+0800
6天前
查看轨道信息
半长轴 6861.187km 6861.174km
偏心率 0.0001204 0.0001972
轨道倾角 43.004° 43.003°
近地点辐角 271.779° 276.545°
升交点赤经 29.085° 63.506°
平近点角 88.292° 7.870°
近地点 482.223km 481.683km
远地点 483.877km 484.391km
周期 94.267分钟 94.266分钟
每日圈数 15.275797 15.275843
Detailed Information
固有亮度:
5
最大亮度:
0.3
卫星平台:
Starlink v2.0 mini
覆盖范围:
全球
运营商:
太空探索技术公司
运营商所在国:
美国
制造商(研发单位):
太空探索技术公司
制造商所在国:
美国
使用方式:
暂无
Satellite Introduction
星链(Starlink)计划是由太空探索技术公司(SpaceX)提出的一个巨型低轨卫星互联网星座项目,计划在2019年至2024年间在太空搭建由约1.2万颗卫星组成的“星链”网络,其中1584颗将部署在地球上空550千米处的近地轨道,并从2020年开始工作。该卫星仍在工作。
2D Orbit Map
3D Orbit Map
Orbit Altitude Analysis Chart
Orbit Inclination Analysis Chart
Orbit Comprehensive Analysis Chart
View Comprehensive Chart
Conjunction Data List
Event ID Objects TCA Miss Dist (km) Collision Risk Probability Collision Risk Index (CRI) Action
CDM_260906-181405-790906-377921
2026-09-06T
18:14:28+0000
2.729 km
极远距离
1.055991E-6 低风险 0.35
CDM_260905-094805-316605-790921
2026-09-05T
09:48:20+0000
2.608 km
极远距离
6.389774E-7 极低风险 0.31